Home > Weather > Gomel > Past weeks

Flag for Belarus Past Weather in Gomel, Belarus — Yesterday and Last 2 Weeks

Now
90 °F

Sunny.


Feels Like: 91 °F
Forecast: 70 / 77 °F
Wind: 10 mph from Southwest

Location: Gomel'

Current Time: Jun 27, 2016 at 4:10:36 PM

Latest Report: Jun 27, 2016 at 3:30 PM


Visibility: 10 mi

Pressure: 29.83 "Hg

Humidity: 43%

Dew Point: 64 °F

Location of GomelLocation

Past Weather in Gomel — Graph

°F

Gomel Temperature Yesterday

Maximum temperature yesterday: 90 °F (at 4:00 PM)
Minimum temperature yesterday: 66 °F (at 5:00 AM)
Average temperature yesterday: 80 °F

High & Low Weather Summary for the Past Weeks

 TemperatureHumidityPressure
High93 °F (Jun 21, 3:00 PM)100% (Jun 15, 10:00 PM)30.33 "Hg (Jun 15, 10:00 PM)
Low46 °F (Jun 13, 4:00 AM)27% (Jun 13, 5:00 PM)29.62 "Hg (Jun 15, 6:00 PM)
Average73 °F64%30.03 "Hg
* Reported Jun 12 3:00 PM — Jun 27 3:00 PM, Gomel, Weather by CustomWeather, © 2016

Note: Actual official high and low records may vary slightly from our data, if they occured in-between our weather recording intervals... More about our weather records

Advertising

Gomel Weather History for the Previous 24 Hours

Scroll right to see more
 ConditionsComfort  
Time TempWeatherWind HumidityBarometerVisibility
3:00 PM
Mon, Jun 27
90 °FSunny.13 mph43%29.86 "Hg10 mi
2:30 PM90 °FSunny.8 mph43%29.89 "Hg10 mi
2:00 PM90 °FSunny.8 mph43%29.86 "Hg10 mi
1:30 PM88 °FSunny.8 mph49%29.89 "Hg10 mi
1:00 PM88 °FSunny.10 mph49%29.89 "Hg10 mi
12:30 PM88 °FSunny.10 mph52%29.89 "Hg10 mi
12:00 PM88 °FSunny.10 mph52%29.89 "Hg10 mi
11:30 AM86 °FPartly sunny.10 mph55%29.89 "HgN/A
11:00 AM86 °FScattered clouds.8 mph55%29.92 "HgN/A
10:30 AM84 °FSunny.6 mph62%29.92 "Hg10 mi
10:00 AM84 °FSunny.8 mph62%29.92 "Hg10 mi
9:30 AM81 °FSunny.8 mph70%29.92 "Hg10 mi
9:00 AM81 °FSunny.10 mph70%29.95 "Hg10 mi
8:30 AM77 °FSunny.8 mph69%29.92 "Hg10 mi
8:00 AM77 °FSunny.8 mph69%29.95 "Hg10 mi
7:30 AM73 °FSunny.8 mph74%29.95 "Hg10 mi
7:00 AM73 °FSunny.10 mph74%29.95 "Hg10 mi
6:30 AM72 °FSunny.10 mph78%29.95 "Hg10 mi
6:00 AM72 °FSunny.10 mph78%29.95 "Hg10 mi
5:00 AM72 °FClear.6 mph78%29.95 "Hg10 mi
4:00 AM73 °FClear.8 mph74%29.95 "Hg10 mi
3:00 AM75 °FClear.8 mph69%29.95 "Hg10 mi
2:00 AM75 °FClear.10 mph69%29.98 "Hg10 mi
1:00 AM75 °FClear.13 mph69%29.98 "Hg10 mi
12:00 AM75 °FClear.8 mph69%29.98 "Hg10 mi
11:00 PM
Sun, Jun 26
77 °FClear.6 mph65%29.98 "Hg10 mi
10:00 PM79 °FSunny.6 mph61%29.98 "Hg10 mi
9:00 PM81 °FSunny.6 mph58%29.98 "Hg10 mi
8:00 PM84 °FSunny.6 mph51%30.01 "Hg10 mi
7:30 PM86 °FSunny.8 mph49%30.01 "Hg10 mi
7:00 PM86 °FSunny.6 mph49%30.01 "Hg10 mi
6:30 PM86 °FSunny.6 mph46%30.01 "Hg10 mi
6:00 PM86 °FSunny.6 mph46%30.04 "Hg10 mi
5:30 PM88 °FSunny.10 mph40%30.04 "Hg10 mi
5:00 PM88 °FSunny.13 mph40%30.04 "Hg10 mi
4:30 PM90 °FSunny.13 mph38%30.07 "Hg10 mi
4:00 PM90 °FSunny.13 mph38%30.07 "Hg10 mi
Weather by CustomWeather, © 2016

See weather overviewHow to use our weather pages